Time,TemperatureF,DewpointF,PressureIn,WindDirection,WindDirectionDegrees,WindSpeedMPH,WindSpeedGustMPH,Humidity,HourlyPrecipIn,Conditions,Clouds,dailyrainin,SoftwareType,DateUTC
2013-08-04 07:30:00,48.4,41.9,29.93,SSW,210,0.0,0.0,78,0.00,,,0.00,WeatherTracker,2013-08-04 14:30:00,
2013-08-04 07:31:00,48.8,41.9,29.93,SSW,210,0.0,0.0,77,0.00,,,0.00,WeatherTracker,2013-08-04 14:31:00,
2013-08-04 07:36:00,50.7,42.0,29.93,SSW,210,0.0,1.0,72,0.00,,,0.00,WeatherTracker,2013-08-04 14:36:00,
2013-08-04 07:41:00,51.9,42.4,29.93,SSW,210,0.0,1.0,70,0.00,,,0.00,WeatherTracker,2013-08-04 14:41:00,
2013-08-04 07:46:00,53.3,42.6,29.93,SSW,210,0.0,0.0,67,0.00,,,0.00,WeatherTracker,2013-08-04 14:46:00,
2013-08-04 07:51:00,54.4,42.9,29.93,SSW,210,0.0,0.0,65,0.00,,,0.00,WeatherTracker,2013-08-04 14:51:00,
2013-08-04 07:56:00,55.3,42.9,29.93,SSW,210,0.0,0.0,63,0.00,,,0.00,WeatherTracker,2013-08-04 14:56:00,
2013-08-04 08:01:00,56.1,42.4,29.93,SSW,210,0.0,0.0,60,0.00,,,0.00,WeatherTracker,2013-08-04 15:01:00,
2013-08-04 08:06:00,56.9,41.4,29.93,SSW,210,0.0,1.0,56,0.00,,,0.00,WeatherTracker,2013-08-04 15:06:00,
2013-08-04 08:11:00,57.7,41.2,29.92,SSW,210,0.0,1.0,54,0.00,,,0.00,WeatherTracker,2013-08-04 15:11:00,
2013-08-04 08:16:00,58.8,40.7,29.92,SSW,210,0.0,1.0,51,0.00,,,0.00,WeatherTracker,2013-08-04 15:16:00,
2013-08-04 08:21:00,59.5,41.4,29.92,SSW,210,0.0,1.0,51,0.00,,,0.00,WeatherTracker,2013-08-04 15:21:00,
2013-08-04 08:27:00,60.3,41.1,29.92,SW,231,2.0,3.0,49,0.00,,,0.00,WeatherTracker,2013-08-04 15:27:00,
2013-08-04 08:31:00,60.9,42.1,29.92,SW,231,1.0,3.0,50,0.00,,,0.00,WeatherTracker,2013-08-04 15:31:00,
2013-08-04 08:36:00,61.5,42.7,29.92,SW,231,0.0,3.0,50,0.00,,,0.00,WeatherTracker,2013-08-04 15:36:00,
2013-08-04 08:42:00,62.3,41.8,29.92,SW,233,3.0,3.0,47,0.00,,,0.00,WeatherTracker,2013-08-04 15:42:00,
2013-08-04 08:47:00,62.8,41.1,29.92,SW,235,0.0,3.0,45,0.00,,,0.00,WeatherTracker,2013-08-04 15:47:00,
2013-08-04 08:52:00,63.3,43.3,29.91,SW,236,0.0,3.0,48,0.00,,,0.00,WeatherTracker,2013-08-04 15:52:00,
2013-08-04 08:57:00,63.9,42.1,29.91,WNW,284,1.0,3.0,45,0.00,,,0.00,WeatherTracker,2013-08-04 15:57:00,
2013-08-04 09:02:00,64.3,43.1,29.91,WNW,287,3.0,4.0,46,0.00,,,0.00,WeatherTracker,2013-08-04 16:02:00,
2013-08-04 09:07:00,64.7,44.0,29.91,NW,313,1.0,5.0,47,0.00,,,0.00,WeatherTracker,2013-08-04 16:07:00,
2013-08-04 09:12:00,65.4,43.5,29.91,NW,326,2.0,5.0,45,0.00,,,0.00,WeatherTracker,2013-08-04 16:12:00,
2013-08-04 09:17:00,66.0,44.0,29.91,NNW,335,2.0,6.0,45,0.00,,,0.00,WeatherTracker,2013-08-04 16:17:00,
2013-08-04 09:22:00,66.8,45.3,29.91,NNW,345,2.0,6.0,46,0.00,,,0.00,WeatherTracker,2013-08-04 16:22:00,
2013-08-04 09:27:00,67.4,45.3,29.91,NNW,342,1.0,4.0,45,0.00,,,0.00,WeatherTracker,2013-08-04 16:27:00,
2013-08-04 09:32:00,68.0,47.6,29.90,North,356,0.0,5.0,48,0.00,,,0.00,WeatherTracker,2013-08-04 16:32:00,
2013-08-04 09:37:00,68.9,47.3,29.90,North,356,1.0,5.0,46,0.00,,,0.00,WeatherTracker,2013-08-04 16:37:00,
2013-08-04 09:42:00,69.3,47.0,29.90,North,356,1.0,3.0,45,0.00,,,0.00,WeatherTracker,2013-08-04 16:42:00,
2013-08-04 09:47:00,69.8,47.5,29.90,North,4,0.0,3.0,45,0.00,,,0.00,WeatherTracker,2013-08-04 16:47:00,
2013-08-04 09:52:00,70.8,45.9,29.90,North,2,2.0,4.0,41,0.00,,,0.00,WeatherTracker,2013-08-04 16:52:00,
2013-08-04 09:57:00,71.3,45.7,29.89,North,352,4.0,4.0,40,0.00,,,0.00,WeatherTracker,2013-08-04 16:57:00,
2013-08-04 10:03:00,71.5,45.9,29.89,North,350,0.0,4.0,40,0.00,,,0.00,WeatherTracker,2013-08-04 17:03:00,
2013-08-04 10:08:00,72.3,47.3,29.89,North,358,3.0,4.0,41,0.00,,,0.00,WeatherTracker,2013-08-04 17:08:00,
2013-08-04 10:13:00,72.7,45.6,29.89,North,349,0.0,5.0,38,0.00,,,0.00,WeatherTracker,2013-08-04 17:13:00,
2013-08-04 10:17:00,73.6,47.1,29.89,North,350,3.0,5.0,39,0.00,,,0.00,WeatherTracker,2013-08-04 17:17:00,
2013-08-04 10:23:00,73.9,46.0,29.89,North,353,2.0,5.0,37,0.00,,,0.00,WeatherTracker,2013-08-04 17:23:00,
2013-08-04 10:28:00,74.6,46.6,29.89,North,356,3.0,5.0,37,0.00,,,0.00,WeatherTracker,2013-08-04 17:28:00,
2013-08-04 10:33:00,75.1,45.6,29.88,North,6,0.0,4.0,35,0.00,,,0.00,WeatherTracker,2013-08-04 17:33:00,
2013-08-04 10:38:00,76.0,47.8,29.88,North,7,1.0,4.0,37,0.00,,,0.00,WeatherTracker,2013-08-04 17:38:00,
2013-08-04 10:43:00,76.7,46.2,29.88,North,5,1.0,4.0,34,0.00,,,0.00,WeatherTracker,2013-08-04 17:43:00,
2013-08-04 10:48:00,76.8,44.7,29.88,NNE,12,0.0,4.0,32,0.00,,,0.00,WeatherTracker,2013-08-04 17:48:00,
2013-08-04 10:53:00,77.4,46.8,29.88,North,8,2.0,4.0,34,0.00,,,0.00,WeatherTracker,2013-08-04 17:53:00,
2013-08-04 10:58:00,78.1,45.8,29.87,NNW,345,2.0,4.0,32,0.00,,,0.00,WeatherTracker,2013-08-04 17:58:00,
2013-08-04 11:03:00,78.4,46.9,29.87,NNW,338,0.0,4.0,33,0.00,,,0.00,WeatherTracker,2013-08-04 18:03:00,
2013-08-04 11:08:00,78.7,43.7,29.87,North,358,4.0,6.0,29,0.00,,,0.00,WeatherTracker,2013-08-04 18:08:00,
2013-08-04 11:13:00,78.8,45.6,29.87,North,1,0.0,6.0,31,0.00,,,0.00,WeatherTracker,2013-08-04 18:13:00,
2013-08-04 11:18:00,79.5,43.5,29.86,NNW,329,3.0,6.0,28,0.00,,,0.00,WeatherTracker,2013-08-04 18:18:00,
2013-08-04 11:24:00,80.0,43.0,29.86,NNE,24,2.0,5.0,27,0.00,,,0.00,WeatherTracker,2013-08-04 18:24:00,
2013-08-04 11:28:00,80.1,44.0,29.86,NW,320,3.0,5.0,28,0.00,,,0.00,WeatherTracker,2013-08-04 18:28:00,
2013-08-04 11:34:00,80.3,43.2,29.86,North,351,4.0,9.0,27,0.00,,,0.00,WeatherTracker,2013-08-04 18:34:00,
2013-08-04 11:39:00,80.8,45.6,29.86,NNW,341,4.0,9.0,29,0.00,,,0.00,WeatherTracker,2013-08-04 18:39:00,
2013-08-04 11:43:00,81.0,40.8,29.86,NNW,330,2.0,6.0,24,0.00,,,0.00,WeatherTracker,2013-08-04 18:43:00,
2013-08-04 11:49:00,81.4,40.0,29.85,NNW,331,4.0,9.0,23,0.00,,,0.00,WeatherTracker,2013-08-04 18:49:00,
2013-08-04 11:54:00,81.8,43.5,29.85,NNW,331,2.0,9.0,26,0.00,,,0.00,WeatherTracker,2013-08-04 18:54:00,
2013-08-04 11:59:00,82.4,40.9,29.85,North,354,5.0,6.0,23,0.00,,,0.00,WeatherTracker,2013-08-04 18:59:00,
2013-08-04 12:04:00,83.2,41.5,29.85,NNE,23,3.0,7.0,23,0.00,,,0.00,WeatherTracker,2013-08-04 19:04:00,
2013-08-04 12:09:00,83.6,40.7,29.85,NNE,20,4.0,7.0,22,0.00,,,0.00,WeatherTracker,2013-08-04 19:09:00,
2013-08-04 12:14:00,83.9,42.1,29.84,West,262,0.0,7.0,23,0.00,,,0.00,WeatherTracker,2013-08-04 19:14:00,
2013-08-04 12:19:00,83.6,41.9,29.84,NW,325,4.0,7.0,23,0.00,,,0.00,WeatherTracker,2013-08-04 19:19:00,
2013-08-04 12:24:00,83.6,40.7,29.84,NW,318,2.0,8.0,22,0.00,,,0.00,WeatherTracker,2013-08-04 19:24:00,
2013-08-04 12:29:00,84.0,41.0,29.84,NNE,24,0.0,8.0,22,0.00,,,0.00,WeatherTracker,2013-08-04 19:29:00,
2013-08-04 12:34:00,85.0,40.7,29.84,NNE,17,0.0,6.0,21,0.00,,,0.00,WeatherTracker,2013-08-04 19:34:00,
2013-08-04 12:39:00,85.9,41.4,29.84,East,85,1.0,6.0,21,0.00,,,0.00,WeatherTracker,2013-08-04 19:39:00,
2013-08-04 12:44:00,85.8,40.1,29.84,NNW,346,0.0,6.0,20,0.00,,,0.00,WeatherTracker,2013-08-04 19:44:00,
2013-08-04 12:49:00,85.7,41.2,29.83,NNW,339,2.0,8.0,21,0.00,,,0.00,WeatherTracker,2013-08-04 19:49:00,
2013-08-04 12:54:00,86.0,41.5,29.83,NNE,16,4.0,8.0,21,0.00,,,0.00,WeatherTracker,2013-08-04 19:54:00,
2013-08-04 12:59:00,86.5,40.6,29.83,NNE,25,0.0,5.0,20,0.00,,,0.00,WeatherTracker,2013-08-04 19:59:00,
2013-08-04 13:04:00,87.0,39.7,29.82,North,349,4.0,5.0,19,0.00,,,0.00,WeatherTracker,2013-08-04 20:04:00,
2013-08-04 13:10:00,86.8,39.6,29.82,NW,318,0.0,7.0,19,0.00,,,0.00,WeatherTracker,2013-08-04 20:10:00,
2013-08-04 13:14:00,86.6,40.7,29.82,NNW,345,9.0,12.0,20,0.00,,,0.00,WeatherTracker,2013-08-04 20:14:00,
2013-08-04 13:20:00,85.8,38.7,29.82,WNW,293,2.0,12.0,19,0.00,,,0.00,WeatherTracker,2013-08-04 20:20:00,
2013-08-04 13:25:00,86.2,37.7,29.82,NNE,16,2.0,11.0,18,0.00,,,0.00,WeatherTracker,2013-08-04 20:25:00,
2013-08-04 13:30:00,87.5,40.1,29.82,North,358,1.0,5.0,19,0.00,,,0.00,WeatherTracker,2013-08-04 20:30:00,
2013-08-04 13:35:00,87.6,40.2,29.81,West,277,0.0,6.0,19,0.00,,,0.00,WeatherTracker,2013-08-04 20:35:00,
2013-08-04 13:40:00,88.0,40.5,29.81,NNW,330,7.0,7.0,19,0.00,,,0.00,WeatherTracker,2013-08-04 20:40:00,
2013-08-04 13:45:00,88.0,40.5,29.81,NE,44,0.0,10.0,19,0.00,,,0.00,WeatherTracker,2013-08-04 20:45:00,
2013-08-04 13:50:00,89.1,44.0,29.80,ENE,61,3.0,10.0,21,0.00,,,0.00,WeatherTracker,2013-08-04 20:50:00,
2013-08-04 13:55:00,89.7,41.9,29.80,North,353,9.0,9.0,19,0.00,,,0.00,WeatherTracker,2013-08-04 20:55:00,
2013-08-04 14:00:00,89.1,41.4,29.80,NNE,13,1.0,9.0,19,0.00,,,0.00,WeatherTracker,2013-08-04 21:00:00,
2013-08-04 14:05:00,88.8,42.5,29.80,NNW,345,3.0,9.0,20,0.00,,,0.00,WeatherTracker,2013-08-04 21:05:00,
2013-08-04 14:10:00,88.9,42.6,29.80,WNW,302,4.0,9.0,20,0.00,,,0.00,WeatherTracker,2013-08-04 21:10:00,
2013-08-04 14:15:00,88.6,42.4,29.80,North,360,2.0,11.0,20,0.00,,,0.00,WeatherTracker,2013-08-04 21:15:00,
2013-08-04 14:21:00,89.0,45.2,29.79,North,351,4.0,11.0,22,0.00,,,0.00,WeatherTracker,2013-08-04 21:21:00,
2013-08-04 14:26:00,89.3,42.9,29.79,North,2,0.0,10.0,20,0.00,,,0.00,WeatherTracker,2013-08-04 21:26:00,
2013-08-04 14:31:00,89.2,41.5,29.79,North,2,6.0,10.0,19,0.00,,,0.00,WeatherTracker,2013-08-04 21:31:00,
2013-08-04 14:36:00,89.1,44.0,29.79,NNW,327,8.0,14.0,21,0.00,,,0.00,WeatherTracker,2013-08-04 21:36:00,
2013-08-04 14:40:00,88.4,40.9,29.78,NNW,334,9.0,16.0,19,0.00,,,0.00,WeatherTracker,2013-08-04 21:40:00,
2013-08-04 14:46:00,88.1,40.6,29.78,WNW,302,3.0,16.0,19,0.00,,,0.00,WeatherTracker,2013-08-04 21:46:00,
2013-08-04 14:49:00,88.2,40.7,29.78,NNW,327,16.0,16.0,19,0.00,,,0.00,WeatherTracker,2013-08-04 21:49:00,
2013-08-04 14:54:00,88.4,44.7,29.78,NNW,333,18.0,18.0,22,0.00,,,0.00,WeatherTracker,2013-08-04 21:54:00,
2013-08-04 14:59:00,88.4,42.2,29.78,WNW,295,11.0,18.0,20,0.00,,,0.00,WeatherTracker,2013-08-04 21:59:00,
2013-08-04 15:04:00,88.5,43.5,29.78,NW,318,14.0,22.0,21,0.00,,,0.00,WeatherTracker,2013-08-04 22:04:00,
2013-08-04 15:09:00,87.9,43.1,29.78,NNW,327,13.0,22.0,21,0.00,,,0.00,WeatherTracker,2013-08-04 22:09:00,
2013-08-04 15:14:00,87.6,42.8,29.78,NW,304,9.0,18.0,21,0.00,,,0.00,WeatherTracker,2013-08-04 22:14:00,
2013-08-04 15:19:00,87.9,44.3,29.77,NW,311,14.0,19.0,22,0.00,,,0.00,WeatherTracker,2013-08-04 22:19:00,
2013-08-04 15:24:00,88.2,43.3,29.77,NW,323,16.0,19.0,21,0.00,,,0.00,WeatherTracker,2013-08-04 22:24:00,
2013-08-04 15:29:00,88.1,45.6,29.77,West,281,9.0,18.0,23,0.00,,,0.00,WeatherTracker,2013-08-04 22:29:00,
2013-08-04 15:34:00,87.5,46.2,29.77,WNW,291,14.0,18.0,24,0.00,,,0.00,WeatherTracker,2013-08-04 22:34:00,
2013-08-04 15:39:00,87.7,45.3,29.77,NW,312,11.0,18.0,23,0.00,,,0.00,WeatherTracker,2013-08-04 22:39:00,
2013-08-04 15:45:00,88.0,44.4,29.77,WNW,292,10.0,20.0,22,0.00,,,0.00,WeatherTracker,2013-08-04 22:45:00,
2013-08-04 15:50:00,87.4,43.9,29.77,NW,325,11.0,23.0,22,0.00,,,0.00,WeatherTracker,2013-08-04 22:50:00,
2013-08-04 15:54:00,87.2,44.9,29.77,West,275,14.0,23.0,23,0.00,,,0.00,WeatherTracker,2013-08-04 22:54:00,
2013-08-04 15:59:00,86.9,44.6,29.77,WNW,283,11.0,23.0,23,0.00,,,0.00,WeatherTracker,2013-08-04 22:59:00,
2013-08-04 16:05:00,87.5,45.1,29.77,WNW,293,12.0,20.0,23,0.00,,,0.00,WeatherTracker,2013-08-04 23:05:00,
2013-08-04 16:10:00,87.7,44.1,29.76,WNW,288,10.0,18.0,22,0.00,,,0.00,WeatherTracker,2013-08-04 23:10:00,
2013-08-04 16:15:00,87.0,43.5,29.76,WNW,289,6.0,15.0,22,0.00,,,0.00,WeatherTracker,2013-08-04 23:15:00,
2013-08-04 16:20:00,87.5,43.9,29.76,NW,307,8.0,18.0,22,0.00,,,0.00,WeatherTracker,2013-08-04 23:20:00,
2013-08-04 16:25:00,87.7,45.3,29.76,WNW,301,10.0,18.0,23,0.00,,,0.00,WeatherTracker,2013-08-04 23:25:00,
2013-08-04 16:30:00,87.4,46.1,29.76,WNW,283,9.0,18.0,24,0.00,,,0.00,WeatherTracker,2013-08-04 23:30:00,
2013-08-04 16:35:00,87.2,43.7,29.76,NNW,333,13.0,18.0,22,0.00,,,0.00,WeatherTracker,2013-08-04 23:35:00,
2013-08-04 16:40:00,87.7,46.4,29.76,WNW,284,10.0,18.0,24,0.00,,,0.00,WeatherTracker,2013-08-04 23:40:00,
2013-08-04 16:45:00,87.1,44.8,29.76,WNW,288,6.0,16.0,23,0.00,,,0.00,WeatherTracker,2013-08-04 23:45:00,
2013-08-04 16:50:00,86.6,45.5,29.76,West,269,7.0,18.0,24,0.00,,,0.00,WeatherTracker,2013-08-04 23:50:00,
2013-08-04 16:55:00,86.2,46.2,29.76,WNW,293,7.0,18.0,25,0.00,,,0.00,WeatherTracker,2013-08-04 23:55:00,
2013-08-04 17:00:00,86.1,47.2,29.76,NW,320,11.0,17.0,26,0.00,,,0.00,WeatherTracker,2013-08-05 00:00:00,
2013-08-04 17:05:00,86.3,47.3,29.75,West,279,5.0,16.0,26,0.00,,,0.00,WeatherTracker,2013-08-05 00:05:00,
2013-08-04 17:10:00,86.3,46.3,29.76,West,275,9.0,16.0,25,0.00,,,0.00,WeatherTracker,2013-08-05 00:10:00,
2013-08-04 17:15:00,86.0,45.0,29.75,West,276,7.0,15.0,24,0.00,,,0.00,WeatherTracker,2013-08-05 00:15:00,
2013-08-04 17:20:00,85.9,44.9,29.75,WSW,248,4.0,17.0,24,0.00,,,0.00,WeatherTracker,2013-08-05 00:20:00,
2013-08-04 17:25:00,85.5,45.6,29.76,WNW,285,9.0,18.0,25,0.00,,,0.00,WeatherTracker,2013-08-05 00:25:00,
2013-08-04 17:30:00,85.4,45.5,29.75,West,281,5.0,18.0,25,0.00,,,0.00,WeatherTracker,2013-08-05 00:30:00,
2013-08-04 17:35:00,85.4,45.5,29.75,West,260,9.0,14.0,25,0.00,,,0.00,WeatherTracker,2013-08-05 00:35:00,
2013-08-04 17:41:00,85.3,45.5,29.75,SW,218,1.0,16.0,25,0.00,,,0.00,WeatherTracker,2013-08-05 00:41:00,
2013-08-04 17:46:00,85.5,44.6,29.75,WSW,246,5.0,16.0,24,0.00,,,0.00,WeatherTracker,2013-08-05 00:46:00,
2013-08-04 17:51:00,85.4,44.5,29.75,WNW,288,8.0,15.0,24,0.00,,,0.00,WeatherTracker,2013-08-05 00:51:00,
2013-08-04 17:56:00,85.1,45.3,29.75,West,273,6.0,15.0,25,0.00,,,0.00,WeatherTracker,2013-08-05 00:56:00,
2013-08-04 18:01:00,84.6,44.9,29.75,WSW,258,9.0,15.0,25,0.00,,,0.00,WeatherTracker,2013-08-05 01:01:00,
2013-08-04 18:06:00,84.1,44.5,29.75,West,264,7.0,17.0,25,0.00,,,0.00,WeatherTracker,2013-08-05 01:06:00,
2013-08-04 18:11:00,83.8,44.2,29.75,West,277,5.0,17.0,25,0.00,,,0.00,WeatherTracker,2013-08-05 01:11:00,
2013-08-04 18:16:00,83.8,45.2,29.75,West,271,12.0,15.0,26,0.00,,,0.00,WeatherTracker,2013-08-05 01:16:00,
2013-08-04 18:21:00,83.3,44.8,29.75,SW,215,5.0,17.0,26,0.00,,,0.00,WeatherTracker,2013-08-05 01:21:00,
2013-08-04 18:26:00,83.2,44.7,29.75,NNW,331,5.0,17.0,26,0.00,,,0.00,WeatherTracker,2013-08-05 01:26:00,
2013-08-04 18:31:00,83.3,45.8,29.75,NNW,329,6.0,13.0,27,0.00,,,0.00,WeatherTracker,2013-08-05 01:31:00,
2013-08-04 21:42:00,66.8,43.0,29.84,North,359,0.0,0.0,42,0.00,,,0.00,WeatherTracker,2013-08-05 04:42:00,
2013-08-04 21:43:00,66.8,43.0,29.84,North,359,0.0,0.0,42,0.00,,,0.00,WeatherTracker,2013-08-05 04:43:00,
2013-08-04 21:44:00,66.8,43.0,29.84,North,359,0.0,7.0,42,0.00,,,0.00,WeatherTracker,2013-08-05 04:44:00,
2013-08-04 21:49:00,67.6,43.7,29.84,North,4,0.0,8.0,42,0.00,,,0.00,WeatherTracker,2013-08-05 04:49:00,
2013-08-04 21:53:00,67.2,43.9,29.84,North,4,0.0,8.0,43,0.00,,,0.00,WeatherTracker,2013-08-05 04:53:00,
2013-08-04 21:58:00,66.5,43.9,29.84,North,4,0.0,3.0,44,0.00,,,0.00,WeatherTracker,2013-08-05 04:58:00,
2013-08-04 22:04:00,65.6,43.1,29.85,North,1,1.0,0.0,44,0.00,,,0.00,WeatherTracker,2013-08-05 05:04:00,
2013-08-04 22:09:00,65.4,42.9,29.85,North,1,0.0,2.0,44,0.00,,,0.00,WeatherTracker,2013-08-05 05:09:00,
2013-08-04 22:14:00,65.7,42.6,29.85,North,1,1.0,4.0,43,0.00,,,0.00,WeatherTracker,2013-08-05 05:14:00,
2013-08-04 22:19:00,66.1,42.9,29.85,North,1,0.0,4.0,43,0.00,,,0.00,WeatherTracker,2013-08-05 05:19:00,
2013-08-04 22:24:00,66.1,42.3,29.85,North,1,0.0,3.0,42,0.00,,,0.00,WeatherTracker,2013-08-05 05:24:00,
2013-08-04 22:29:00,66.1,43.5,29.85,North,1,0.0,3.0,44,0.00,,,0.00,WeatherTracker,2013-08-05 05:29:00,
2013-08-04 22:34:00,65.4,43.5,29.85,North,1,1.0,0.0,45,0.00,,,0.00,WeatherTracker,2013-08-05 05:34:00,
2013-08-04 22:39:00,65.4,42.3,29.85,North,1,0.0,3.0,43,0.00,,,0.00,WeatherTracker,2013-08-05 05:39:00,
2013-08-04 22:44:00,65.9,42.2,29.85,North,1,1.0,3.0,42,0.00,,,0.00,WeatherTracker,2013-08-05 05:44:00,
2013-08-04 22:49:00,66.5,42.7,29.85,North,4,0.0,2.0,42,0.00,,,0.00,WeatherTracker,2013-08-05 05:49:00,
2013-08-04 22:54:00,66.2,43.0,29.85,North,4,0.0,2.0,43,0.00,,,0.00,WeatherTracker,2013-08-05 05:54:00,
2013-08-04 22:59:00,64.5,42.7,29.85,North,4,3.0,3.0,45,0.00,,,0.00,WeatherTracker,2013-08-05 05:59:00,
2013-08-04 23:04:00,61.2,41.9,29.85,North,4,0.0,3.0,49,0.00,,,0.00,WeatherTracker,2013-08-05 06:04:00,
2013-08-04 23:09:00,60.2,41.5,29.85,North,4,0.0,3.0,50,0.00,,,0.00,WeatherTracker,2013-08-05 06:09:00,
2013-08-04 23:14:00,60.1,41.9,29.85,North,4,0.0,3.0,51,0.00,,,0.00,WeatherTracker,2013-08-05 06:14:00,
2013-08-04 23:19:00,60.1,40.9,29.85,North,4,2.0,2.0,49,0.00,,,0.00,WeatherTracker,2013-08-05 06:19:00,
2013-08-04 23:24:00,60.1,41.4,29.86,NNE,31,4.0,4.0,50,0.00,,,0.00,WeatherTracker,2013-08-05 06:24:00,
2013-08-04 23:29:00,59.1,41.0,29.86,ESE,105,3.0,4.0,51,0.00,,,0.00,WeatherTracker,2013-08-05 06:29:00,
2013-08-04 23:34:00,58.4,41.3,29.86,SE,125,0.0,4.0,53,0.00,,,0.00,WeatherTracker,2013-08-05 06:34:00,
2013-08-04 23:39:00,57.9,41.4,29.86,SE,125,0.0,4.0,54,0.00,,,0.00,WeatherTracker,2013-08-05 06:39:00,
2013-08-04 23:45:00,57.3,41.3,29.86,ESE,111,2.0,3.0,55,0.00,,,0.00,WeatherTracker,2013-08-05 06:45:00,
2013-08-04 23:49:00,56.8,41.3,29.86,ESE,112,0.0,3.0,56,0.00,,,0.00,WeatherTracker,2013-08-05 06:49:00,
2013-08-04 23:55:00,56.6,42.0,29.86,ESE,112,0.0,2.0,58,0.00,,,0.00,WeatherTracker,2013-08-05 06:55:00,